Wind_Speed
19 17 15 14 12 10 9 8 6 5 4 4 5 6 7 8 9 11 13 14 15 16 15 15 16 16 15 15 15 14 13 13 12 11 10 8 7 5 4 3 2 2 1 2
20 18 17 15 13 11 9 7 5 4 3 3 3 4 5 7 8 10 12 13 13 14 15 15 15 15 15 15 15 14 13 13 12 11 10 9 7 6 5 4 3 2 1 2
22 20 17 16 14 12 10 8 6 4 2 1 2 3 4 6 7 9 10 11 12 13 14 14 14 14 14 15 14 13 13 12 12 11 10 9 7 6 5 5 4 3 3 3
24 22 19 17 16 13 11 9 7 5 2 2 1 2 6 5 6 8 9 10 12 12 13 12 13 13 14 14 14 13 13 12 12 11 10 9 8 7 6 6 5 4 4 3
25 23 21 20 17 15 13 11 9 7 5 3 2 1 6 6 6 7 8 9 11 12 12 11 12 12 12 13 13 13 13 13 12 11 10 9 8 8 7 6 5 5 5 4
27 25 24 22 19 17 15 12 10 8 6 6 5 2 5 6 6 7 7 8 10 11 11 10 11 12 13 13 13 13 13 13 12 11 10 9 9 8 8 7 7 6 6 6
29 28 26 24 21 19 17 14 10 9 8 8 6 4 5 6 6 6 6 8 9 9 10 10 11 12 12 13 13 13 13 13 12 11 11 10 9 9 8 8 8 8 7 8
29 29 28 26 24 21 19 16 13 10 9 9 8 6 6 5 6 6 6 7 8 9 10 10 11 12 12 12 12 12 12 12 12 11 11 10 10 9 9 9 9 9 9 8
30 29 29 28 26 24 22 19 16 13 12 9 9 8 7 7 6 6 7 7 7 9 10 10 11 11 12 11 12 12 12 12 11 11 11 11 10 9 9 9 9 10 10 9
30 30 30 29 27 26 24 21 19 16 14 11 11 9 8 8 7 7 8 8 9 10 11 10 10 10 11 12 11 12 12 12 12 11 11 11 10 9 10 10 10 10 10 10
31 30 30 30 29 28 26 24 22 18 16 12 10 10 11 10 9 8 9 9 10 11 11 10 11 11 11 11 11 11 12 12 11 11 12 11 11 10 11 11 11 11 11 11
32 31 30 30 30 28 26 25 23 21 19 16 13 12 13 12 11 10 10 10 11 11 10 10 10 10 11 10 10 12 12 12 12 12 13 13 12 11 11 12 11 12 12 11
33 33 31 31 31 30 29 26 24 21 20 18 15 13 14 12 12 12 11 11 11 11 11 10 10 10 10 10 11 12 12 13 13 14 14 14 14 13 12 13 13 13 12 12
33 33 31 28 27 28 29 28 26 23 22 20 17 16 15 14 13 13 12 12 12 11 11 10 10 11 11 11 11 12 13 13 14 14 15 15 15 14 14 14 14 13 13 13
33 33 32 31 30 29 28 28 26 25 23 20 19 18 16 15 15 15 14 13 12 12 12 11 11 11 12 12 13 13 14 15 15 16 16 16 17 17 16 16 16 15 15 14
33 32 31 32 31 30 29 28 27 26 24 22 20 19 18 17 16 16 15 15 14 14 13 13 13 13 13 14 15 15 16 16 17 18 18 18 18 18 18 17 17 15 16 16
32 31 30 30 30 30 31 29 27 26 25 23 21 21 20 18 17 17 16 16 16 16 16 15 14 15 15 16 17 17 18 18 19 20 20 19 19 19 18 17 18 18 18 17
33 31 30 29 30 31 29 29 28 27 26 25 24 23 21 20 19 18 17 17 18 17 17 17 16 16 17 18 18 19 20 20 21 21 21 20 20 19 18 18 18 19 19 18
34 32 31 30 30 30 31 29 27 27 27 27 26 25 23 22 20 20 19 18 18 18 18 19 18 18 18 19 20 21 22 22 22 21 21 21 21 20 19 19 19 20 20 19
35 33 33 32 30 29 30 28 27 28 29 28 27 26 25 24 23 22 21 20 20 19 19 20 20 20 20 20 21 23 23 23 23 23 22 22 21 20 20 20 20 21 22 21
35 34 34 33 32 30 31 29 27 28 28 28 28 27 26 25 25 24 23 22 22 22 22 23 23 23 22 23 23 24 24 23 23 23 23 23 22 21 21 21 22 22 22 21
36 35 35 34 33 33 33 30 30 29 28 28 28 28 27 27 26 26 25 25 24 24 24 25 24 24 24 24 25 25 25 25 24 24 24 24 24 23 23 23 23 23 23 22
38 37 36 36 35 35 34 31 30 30 30 30 30 30 29 29 28 27 27 27 26 26 26 26 26 25 25 26 27 26 26 26 26 26 26 26 25 25 25 24 24 23 23 23
39 38 37 37 36 35 34 33 32 32 32 32 32 31 31 31 30 29 29 28 28 28 28 28 28 27 27 27 28 28 28 27 28 28 27 26 26 26 26 25 25 24 24 25
39 38 38 38 37 35 35 34 34 34 33 33 32 32 32 32 32 31 30 30 30 30 29 29 29 29 29 29 29 30 30 29 28 27 27 27 27 27 27 27 26 26 25 26
40 40 40 39 38 37 36 35 35 35 34 33 33 33 32 32 32 32 32 32 32 32 32 31 31 31 31 32 32 32 31 30 29 29 28 28 28 28 28 27 27 27 26 26
Wind_Direction
192 189 189 189 182 178 167 163 166 154 125 91 74 58 43 34 30 27 24 22 20 19 18 17 15 17 19 19 20 24 25 26 26 25 25 29 31 35 41 40 40 58 139 217
196 198 196 191 188 183 175 173 178 174 163 106 66 45 32 22 19 18 17 16 17 15 13 11 10 15 16 17 18 21 22 22 22 21 21 23 24 28 27 21 18 12 341 299
200 204 201 197 195 192 189 188 192 192 182 136 40 2 357 2 4 7 7 8 8 8 7 6 5 8 10 11 12 13 15 15 16 14 12 12 16 18 14 9 7 1 336 308
205 207 205 203 202 200 207 206 205 208 207 264 24 315 317 339 349 349 354 360 359 1 3 4 4 5 5 9 12 13 12 10 9 9 7 3 6 9 6 357 353 344 335 315
211 210 208 208 208 210 215 216 218 222 228 248 283 295 304 319 334 339 347 354 354 355 360 5 8 11 10 10 10 13 11 9 6 5 5 2 359 359 357 348 340 334 327 313
214 213 212 212 214 217 220 223 228 234 243 255 265 284 297 307 317 330 338 348 354 355 0 4 7 9 9 7 7 8 8 7 6 4 3 1 357 353 353 352 346 334 327 319
214 214 215 215 217 219 221 223 231 239 247 255 265 272 275 297 314 323 333 347 353 357 359 0 360 2 4 4 5 5 4 4 4 3 2 359 356 354 352 355 354 345 331 323
216 217 217 217 218 221 220 220 223 230 244 261 271 265 277 291 309 317 327 342 351 351 353 354 354 357 359 0 1 1 360 359 359 1 2 358 359 357 355 352 349 344 335 327
217 219 220 220 221 222 224 222 224 234 240 246 260 267 271 282 295 305 314 328 336 340 343 344 348 353 357 356 356 358 356 356 358 1 1 357 355 353 349 346 344 342 339 333
216 220 221 222 223 224 225 227 230 232 242 246 260 265 261 273 279 295 305 311 319 327 331 335 345 349 351 352 351 353 355 354 355 356 356 353 351 346 340 340 340 337 334 332
217 219 221 222 223 226 227 229 232 235 238 240 251 257 259 267 274 285 293 300 311 319 324 330 339 342 343 346 350 349 350 350 351 350 350 349 345 342 343 339 338 337 335 333
217 218 222 224 225 226 228 230 233 237 244 244 240 252 260 261 269 275 284 292 303 310 316 324 333 339 340 342 345 345 347 348 347 346 345 343 342 340 340 339 336 335 332 329
217 218 220 224 227 227 228 230 233 237 243 245 241 247 256 258 262 267 276 286 295 299 306 316 326 334 335 335 337 337 340 342 344 344 342 341 340 338 336 335 334 331 328 323
218 220 220 223 229 230 230 232 234 237 239 243 241 240 251 254 257 262 268 277 284 288 297 308 316 325 331 331 334 334 334 336 336 335 333 333 333 331 329 328 326 325 325 323
219 221 221 221 227 230 232 233 235 236 236 239 243 244 247 251 253 257 262 268 271 277 288 298 306 315 324 328 327 327 328 329 329 329 328 327 329 327 325 321 322 319 320 320
219 221 222 225 228 231 232 234 235 236 236 237 239 243 246 250 252 253 257 262 265 270 278 287 296 303 311 317 319 321 322 324 326 326 326 323 324 325 324 323 323 319 316 315
218 221 223 226 228 230 232 234 235 237 238 238 240 243 246 249 252 254 254 256 261 265 271 278 287 294 302 309 314 317 317 318 321 322 323 322 320 319 321 323 322 322 321 315
218 220 222 225 227 230 232 233 234 235 236 237 240 243 246 248 251 253 255 256 259 262 266 274 283 291 297 303 308 311 314 314 316 318 319 318 317 316 314 316 319 320 321 317
218 220 223 225 229 233 234 234 234 236 237 238 240 244 246 249 250 253 256 258 259 260 264 271 278 285 292 298 304 307 310 312 312 314 315 316 314 312 311 312 314 315 316 315
219 221 224 226 226 231 236 235 235 237 238 238 240 243 246 249 251 253 255 257 258 259 265 270 275 281 289 295 300 304 306 308 308 310 312 312 313 312 310 309 311 313 313 312
221 222 224 227 228 231 235 234 234 236 238 237 239 242 245 248 251 253 253 254 256 259 264 269 275 279 284 290 296 301 304 304 304 306 310 309 309 309 310 309 309 310 309 308
222 225 226 227 229 233 235 234 235 237 238 238 239 241 245 248 251 253 254 255 257 259 263 268 273 278 282 287 292 296 299 302 302 303 305 306 307 307 307 306 306 307 306 307
224 226 227 228 230 233 235 235 236 236 237 238 240 242 244 247 250 252 253 255 257 259 263 269 272 276 280 284 289 293 295 297 298 300 301 303 303 303 304 303 305 306 305 306
226 227 229 231 231 233 235 235 235 236 238 240 241 243 245 248 249 251 254 256 258 260 264 269 271 275 278 283 287 290 292 295 297 298 299 300 301 301 300 301 302 303 304 305
226 227 229 231 232 233 234 235 236 238 240 242 244 245 247 249 250 251 254 257 259 261 266 269 271 274 279 282 285 288 290 292 293 294 295 296 298 299 299 299 300 301 301 304
226 228 229 231 232 234 236 237 239 240 242 245 247 247 248 250 251 252 253 256 258 261 264 267 271 274 278 281 284 286 288 289 291 292 293 294 296 296 295 297 297 298 300 301
Height
5938 5942 5945 5946 5948 5951 5952 5954 5955 5955 5954 5954 5953 5953 5951 5949 5948 5946 5944 5942 5939 5937 5935 5932 5930 5927 5925 5922 5919 5917 5915 5913 5911 5908 5907 5906 5905 5904 5903 5903 5902 5902 5902 5901
5937 5940 5942 5944 5947 5949 5951 5953 5954 5954 5954 5954 5954 5953 5952 5950 5949 5947 5945 5943 5941 5938 5935 5933 5931 5928 5926 5923 5921 5918 5916 5914 5912 5910 5908 5907 5906 5905 5904 5903 5902 5901 5901 5901
5934 5938 5940 5943 5946 5948 5950 5952 5953 5954 5954 5954 5955 5954 5953 5951 5950 5948 5946 5944 5941 5939 5937 5934 5931 5929 5926 5924 5922 5919 5917 5915 5913 5911 5909 5908 5906 5905 5904 5903 5902 5902 5901 5901
5930 5934 5938 5941 5944 5947 5949 5950 5952 5953 5954 5955 5955 5957 5953 5951 5950 5948 5947 5944 5942 5939 5937 5934 5932 5929 5927 5925 5922 5920 5918 5916 5914 5912 5910 5908 5907 5905 5904 5903 5902 5902 5901 5900
5927 5931 5935 5939 5942 5944 5947 5948 5950 5951 5953 5954 5954 5955 5955 5951 5950 5948 5947 5945 5942 5939 5937 5935 5933 5930 5927 5925 5923 5921 5919 5916 5914 5912 5910 5909 5907 5906 5904 5903 5902 5901 5900 5899
5924 5928 5932 5936 5939 5942 5944 5947 5948 5950 5952 5954 5953 5954 5954 5951 5949 5948 5946 5944 5942 5940 5937 5935 5933 5931 5929 5926 5924 5922 5919 5917 5915 5913 5911 5909 5907 5906 5904 5903 5902 5901 5900 5899
5921 5924 5928 5932 5936 5939 5942 5946 5949 5950 5952 5953 5951 5952 5952 5950 5948 5947 5946 5944 5942 5940 5938 5936 5934 5932 5929 5927 5925 5922 5920 5917 5915 5913 5911 5909 5907 5906 5904 5903 5901 5900 5899 5898
5917 5921 5924 5928 5932 5936 5939 5943 5947 5950 5951 5951 5949 5950 5950 5948 5947 5946 5945 5943 5942 5940 5938 5936 5934 5931 5929 5927 5925 5922 5920 5918 5915 5913 5911 5909 5907 5905 5904 5902 5901 5899 5898 5897
5914 5918 5921 5925 5929 5933 5935 5939 5943 5945 5946 5948 5948 5947 5947 5946 5945 5945 5944 5943 5941 5939 5938 5935 5933 5931 5929 5927 5925 5922 5920 5918 5916 5913 5911 5909 5907 5905 5904 5902 5900 5898 5897 5895
5908 5913 5916 5920 5924 5928 5932 5935 5938 5942 5943 5945 5946 5945 5946 5944 5944 5943 5942 5941 5940 5939 5937 5935 5933 5931 5929 5926 5924 5922 5920 5918 5916 5913 5911 5909 5907 5905 5903 5901 5899 5898 5896 5894
5904 5909 5912 5916 5920 5923 5928 5931 5934 5937 5939 5942 5945 5946 5943 5942 5942 5941 5940 5939 5938 5937 5936 5934 5932 5930 5928 5926 5924 5922 5920 5918 5915 5913 5911 5909 5907 5904 5902 5900 5898 5897 5895 5893
5898 5904 5908 5911 5915 5919 5923 5926 5930 5933 5935 5937 5940 5944 5938 5939 5939 5939 5938 5937 5937 5935 5934 5933 5931 5929 5927 5925 5923 5921 5919 5917 5915 5913 5910 5908 5906 5903 5901 5899 5897 5895 5893 5891
5893 5898 5902 5906 5911 5914 5917 5921 5925 5928 5931 5933 5936 5940 5935 5936 5936 5936 5936 5935 5934 5933 5932 5931 5929 5928 5926 5924 5922 5920 5918 5916 5914 5912 5910 5907 5905 5902 5900 5898 5895 5893 5892 5890
5887 5892 5898 5903 5906 5908 5912 5916 5919 5923 5926 5928 5931 5933 5932 5933 5933 5933 5933 5932 5932 5931 5930 5929 5928 5926 5924 5923 5921 5919 5917 5915 5913 5911 5908 5906 5903 5900 5898 5896 5894 5892 5890 5887
5881 5886 5891 5896 5899 5903 5907 5910 5913 5917 5920 5924 5926 5927 5928 5929 5929 5930 5930 5929 5929 5929 5928 5927 5926 5925 5923 5922 5920 5918 5916 5914 5911 5909 5907 5904 5901 5899 5896 5893 5890 5888 5887 5885
5876 5881 5885 5889 5893 5897 5901 5904 5907 5911 5914 5917 5920 5922 5923 5924 5925 5926 5926 5926 5926 5926 5925 5925 5924 5923 5921 5920 5918 5916 5914 5911 5909 5907 5904 5901 5899 5896 5894 5891 5888 5885 5883 5882
5870 5875 5880 5884 5887 5891 5894 5898 5902 5905 5908 5912 5914 5917 5918 5919 5921 5922 5922 5922 5922 5922 5922 5922 5921 5920 5918 5917 5915 5913 5911 5909 5906 5904 5901 5898 5896 5894 5891 5889 5886 5883 5881 5878
5864 5869 5874 5878 5882 5885 5891 5892 5896 5899 5902 5905 5908 5910 5912 5914 5916 5917 5917 5918 5918 5918 5918 5917 5917 5916 5915 5913 5912 5910 5908 5905 5903 5900 5897 5894 5892 5890 5888 5885 5883 5880 5877 5875
5858 5863 5868 5872 5876 5879 5883 5886 5890 5893 5896 5899 5902 5905 5907 5909 5911 5911 5912 5913 5913 5913 5913 5913 5913 5912 5911 5909 5908 5906 5904 5901 5899 5896 5893 5891 5888 5886 5884 5881 5879 5876 5874 5871
5851 5856 5862 5865 5870 5874 5877 5880 5884 5888 5890 5893 5896 5898 5901 5903 5905 5906 5907 5908 5908 5908 5908 5908 5908 5907 5906 5905 5903 5901 5899 5897 5894 5892 5889 5887 5884 5882 5879 5877 5875 5872 5869 5867
5844 5849 5853 5858 5863 5867 5869 5873 5878 5882 5884 5887 5889 5892 5894 5896 5898 5900 5901 5902 5902 5903 5903 5903 5903 5902 5901 5900 5898 5896 5894 5892 5890 5888 5885 5882 5880 5877 5875 5873 5870 5868 5865 5862
5837 5842 5847 5851 5856 5861 5862 5867 5871 5874 5877 5879 5882 5885 5887 5889 5891 5893 5894 5895 5896 5897 5897 5897 5897 5896 5895 5894 5893 5891 5889 5887 5884 5882 5880 5878 5875 5873 5871 5868 5865 5863 5860 5857
5829 5834 5838 5844 5849 5851 5855 5859 5863 5866 5869 5872 5875 5877 5880 5882 5884 5885 5887 5888 5889 5890 5890 5890 5890 5890 5889 5887 5886 5885 5883 5881 5879 5877 5874 5872 5870 5867 5865 5863 5860 5857 5854 5852
5820 5825 5830 5835 5839 5843 5847 5851 5855 5858 5861 5864 5867 5870 5872 5874 5876 5878 5879 5880 5881 5882 5883 5883 5883 5883 5882 5881 5879 5878 5876 5874 5872 5870 5868 5866 5864 5861 5859 5857 5854 5852 5849 5846
5811 5817 5821 5826 5830 5835 5839 5843 5846 5850 5853 5856 5858 5861 5863 5866 5868 5869 5871 5872 5873 5874 5875 5875 5875 5875 5874 5873 5872 5871 5869 5867 5865 5863 5861 5859 5857 5855 5853 5850 5848 5846 5843 5840
5803 5808 5813 5817 5822 5826 5831 5835 5838 5841 5844 5847 5850 5852 5855 5857 5859 5861 5862 5864 5865 5866 5866 5867 5867 5867 5866 5865 5864 5863 5861 5860 5858 5856 5854 5852 5850 5848 5846 5844 5841 5839 5836 5834